{"data":{"norad_id":68237,"intl_designator":"2026-054F","name":"STARLINK-37095","alt_names":[],"object_type":"PAYLOAD","status":"ACTIVE","operator":null,"country":"US","launch_date":"2026-03-17","launch_site_code":"AFETR","launch_vehicle":null,"mission":null,"orbit_class":"UNKNOWN","rcs_meters":null,"size_class":null,"mass_kg":null,"dimensions":null,"purposes":["comms"],"wikipedia_slug":null,"has_3d_model":false,"image_url":null,"decayed_at":null,"tle_current":{"epoch":"2026-05-25T02:55:59.332800Z","epoch_age_seconds":61165,"freshness":"FRESH","line1":"1 68237U 26054F   26145.12221450  .00040588  00000+0  12045-2 0  9996","line2":"2 68237  53.1601 295.4221 0002068  82.8261 277.2977 15.34437296 10783","mean_motion":15.34437296,"eccentricity":0.0002068,"inclination_deg":53.1601,"raan_deg":295.4221,"arg_perigee_deg":82.8261,"mean_anomaly_deg":277.2977,"bstar":0.0012045,"rev_number":1078,"period_min":93.84547701974,"perigee_km":461.1777280426,"apogee_km":464.00705371867,"semimajor_km":6840.7293908806,"source":"CELESTRAK","updated_at":"2026-05-25T13:38:21.883848Z"}}}